#timestamp,LO_Frequency,Hit,StdDev 
1590439535.6,286047056.5,P
1590439555.4,286047058.8,P
1590439575.2,286047058.3,P
1590439595.1,286047058.2,Y
1590439596.0,286047058.2,P
1590439615.8,286047000.3,N
1590439635.7,286047000.1,N
1590439655.5,286046999.9,N
1590439675.3,286047002.2,N
1590439695.2,286047002.7,N
1590439715.9,286047002.4,N
1590439735.7,286047002.6,N
1590439755.6,286047001.9,N
1590439775.4,286047002.0,N
1590439795.3,286047001.8,N
1590439815.1,286047004.2,N
1590439816.0,286047004.2,N
1590439835.8,286047003.5,N
1590439855.7,286047003.0,N
1590439875.5,286047003.0,N
1590439895.3,286047005.4,N
1590439915.2,286047005.9,N
1590439935.0,286047005.3,N
1590439935.9,286047005.3,N
1590439955.8,286047005.7,N
1590439975.6,286047007.2,N
1590439995.4,286047004.5,N
1590440015.3,286047007.6,N
1590440035.1,286047007.0,N
1590440055.8,286047006.7,N
1590440075.7,286047008.8,N
1590440095.5,286047008.5,N
1590440115.4,286047006.1,N
1590440135.2,286047008.6,N
1590440155.0,286047008.1,N
1590440155.9,286047008.1,Y
1590440175.8,286047003.1,P
1590440195.6,286047006.0,P
1590440215.4,286047006.0,P
1590440235.3,286047004.5,Y
1590440255.1,286047001.0,P
1590440275.9,286047000.0,N
1590440295.7,286047000.1,N
1590440315.5,286047002.3,N
1590440335.4,286047002.3,N
1590440355.2,286047002.1,N
1590440375.0,286047001.3,N
1590440376.0,286047001.3,N
1590440395.8,286047003.9,N
